Вернуться в каталог

STARLINK-34879

АктивенСвязьVLEO
NORAD 65377·PAYLOAD·🇺🇸 United States

Запущен Aug 28, 2025 с Cape Canaveral Space Force Station

Loading…

Ближайшие Пролёты (ближайшие 24 часа)

TLE

СвежийSource: CelesTrak SupGP

Эпоха: Sep 15, 2026, 04:07 UTC

1 65377C 25190AC  26258.17201389  .00071430  00000+0  21103-2 0  2580
2 65377  53.1593   6.6184 0001301  89.6838 353.4607 15.34356936    12

Отслеживайте STARLINK-34879 в реальном времени с AllMySat

Download on the App Store